Location: Unspecified
(26.9333°N, 0.0000°E)
Time: 02:55:06
(UTC+00:00)

CZ-6A DEB - Visible Passes

Search period start: 04 April 2026 00:00
Search period end: 14 April 2026 00:00
Orbit: 829 x 920 km, 98.9° (Epoch: 29 March)

Date Brightness Start Highest point End Pass type
(mag) Time Alt. Az. Time Alt. Az. Time Alt. Az.
4 Apr ? 05:02:10 10° NNE 05:07:44 84° ESE 05:13:10 10° SSW visible
5 Apr ? 04:57:17 10° NNE 05:02:50 75° ESE 05:08:15 10° S visible
6 Apr ? 04:52:26 10° NNE 04:57:56 67° ESE 05:03:18 10° S visible
7 Apr ? 04:47:35 10° NNE 04:53:01 59° E 04:58:21 10° S visible
8 Apr ? 04:42:45 10° NNE 04:48:07 52° E 04:53:22 10° S visible
9 Apr ? 04:37:56 10° NNE 04:43:13 46° E 04:48:22 10° S visible
10 Apr ? 04:33:09 10° NNE 04:38:18 41° E 04:43:20 10° S visible
11 Apr ? 04:28:21 10° NNE 04:33:22 36° E 04:38:17 10° SSE visible
12 Apr ? 04:23:35 10° NE 04:28:27 32° E 04:33:13 10° SSE visible
13 Apr ? 04:18:50 10° NE 04:23:31 29° E 04:28:08 10° SSE visible
